Regional Weather Roundup
Issued by NWS Green Bay, WI

Home | Current Version | Previous Version | Graphics & Text | Print | Product List | Glossary Off
Versions: 1 2 3 4 5 6 7 8 9 10 11 12 13 14 15 16 17 18 19 20 21 22 23 24 25 26 27 28 29 30 31 32 33 34 35 36 37 38 39 40 41 42 43 44 45 46 47 48 49 50

000
ASUS43 KGRB 092300
RWRGRB

NORTH-CENTRAL AND NORTHEAST WISCONSIN REGIONAL WEATHER ROUNDUP
NATIONAL WEATHER SERVICE GREEN BAY WI
500 PM CST FRI DEC 09 2016

WIZ005-009-010>012-018-019-100000-
NORTH CENTRAL WISCONSIN

CITY           SKY/WX    TMP DP  RH WIND       PRES   REMARKS
IRONWOOD       FLURRIES  13   4  67 W13       30.41S WCI  -2
MANITOWISH WTR NOT AVBL
ARBOR VITAE    NOT AVBL
EAGLE RIVER    NOT AVBL
LAND O LAKES   NOT AVBL
RHINELANDER    CLOUDY    15   7  70 NW3       30.38S
PHILLIPS       NOT AVBL
ANTIGO         NOT AVBL
TOMAHAWK       NOT AVBL
MERRILL        NOT AVBL
$$

WIZ013-073-100000-
NORTHEAST WISCONSIN

CITY           SKY/WX    TMP DP  RH WIND       PRES   REMARKS
IRON MOUNTAIN  CLOUDY    19   6  57 W14       30.36R WCI   6
MARINETTE      CLOUDY    23   8  52 NW6       30.42S
$$

WIZ017-030-035>037-045-100000-
CENTRAL WISCONSIN

CITY           SKY/WX    TMP DP  RH WIND       PRES   REMARKS
MEDFORD        NOT AVBL
WAUSAU         MOCLDY    15   9  76 W7        30.41F WCI   5
MOSINEE        CLOUDY    16  10  79 W8        30.43S WCI   5
MARSHFIELD     CLOUDY    17   9  70 W8        30.42F WCI   7
WISC RAPIDS    CLOUDY    18   9  68 NW5       30.46S
STEVENS POINT  NOT AVBL
WAUPACA        NOT AVBL
SHAWANO        NOT AVBL
CLINTONVILLE   NOT AVBL
WAUTOMA        CLEAR     17   7  64 NW3       30.47S
$$

WIZ038-039-048-051-100000-
FOX VALLEY

CITY           SKY/WX    TMP DP  RH WIND       PRES   REMARKS
NWS GREEN BAY  PTCLDY    23  10  57 W12       30.44R
APPLETON       PTCLDY    19   3  49 NW13      30.43R WCI   7
OSHKOSH        CLEAR     19   7  59 NW7       30.45S WCI  10
FOND DU LAC    CLEAR     19   5  54 NW7       30.46S WCI  10
$$

WIZ022-050-052-100000-
EAST CENTRAL WISCONSIN

CITY           SKY/WX    TMP DP  RH WIND       PRES   REMARKS
EPHRAIM        NOT AVBL
WASHINGTON ISL NOT AVBL
STURGEON BAY   CLOUDY    24   9  52 NW13      30.41S
MANITOWOC      NOT AVBL
SHEBOYGAN      CLEAR     21   7  54 W12       30.45R WCI   9
$$

LMZ563-521-522-541>543-100000-
LAKESHORE

STATION/POSITION TIME  TEMP    WIND        PRES    VSBY  WAVE
                       AIR SEA DIR/SP/G                  HT/PER
                 (UTC) (F)     (DEG/KT/KT) (MB)    (MI)  (FT/S)
SHEBOYGAN LKSHOR 2200   24     300/ 13/ 16 1031.9R
KEWAUNEE LKSHORE 2230   24     290/  9/ 15 1029.5R
ALGOMA MARINA    2206          310/ 11/ 14   N/A
NORTHPORT PIER   2249   25     290/ 10/ 18 1028.8S
SISTER BAY LKSHO 2220   26     300/ 19/ 24   N/A
CHAMBERS ISLAND  2240   24     270/  9/ 14 1029.1R
MENOMINEE LKSHOR 2230   24     290/ 10/ 15 1029.0R
$$




USA.gov is the U.S. government's official web portal to all federal, state and local government web resources and services.